[[{"header":{"parameterUnit":"m.s-1","parameterCategory":1,"la1":30.2991,"la2":30.254,"lo1":-89.0895,"lo2":-89.0444,"dy":0.0017,"dx":0.0017,"nx":28,"ny":28,"refTime":"2023-10-23T21:00:00:Z","depth":0,"parameterNumber":2,"parameterNumberName":"U-component_of_WINDS"},"data":[0,0,0,0,0,0,0,0,0,0,0,0,0,0,0,0,0,0,0,0,0,0,0,0,0,0,0,0,0,0,0,0,0,0,0,0,0,0,0,0,0,0,0,0,0,0,0,0,0,0,0,0,0,0,0,0,0,0,-5.66,-5.6601,0,-5.6686,-5.6687,-5.6688,-5.6602,-5.6599,-5.6595,-5.6592,-5.668,-5.6685,-5.669,0,0,0,0,0,0,0,0,0,0,0,0,0,-5.6365,-5.6369,-5.66,-5.6601,-5.6602,-5.6685,-5.6687,-5.6688,-5.6603,-5.6599,-5.6595,-5.6591,-5.6678,-5.6684,-5.6691,0,0,0,0,0,0,0,0,0,0,0,0,0,-5.646,-5.6371,-5.66,-5.657,-5.6568,-5.6685,-5.6687,-5.6688,-5.6604,-5.6599,-5.6594,-5.6589,-5.6676,-5.6684,-5.6692,-5.6843,0,0,-5.6717,-5.672,0,0,0,0,0,0,0,0,-5.6455,-5.6469,-5.6573,-5.6572,-5.657,-5.6628,-5.6636,-5.674,-5.6605,-5.659,-5.6592,-5.6586,-5.6667,-5.6675,-5.6702,-5.6847,-5.6851,-5.6718,-5.6723,-5.6726,-5.6728,0,0,0,0,0,0,0,-5.6449,-5.6465,-5.6634,-5.6575,-5.6573,-5.6553,-5.6561,-5.6655,-5.6655,-5.6591,-5.6585,-5.6596,-5.6665,-5.6695,-5.6704,-5.6852,-5.6717,-5.6725,-5.673,-5.6733,-5.7128,-5.7133,0,0,0,0,0,0,-5.6445,-5.646,-5.6631,-5.6636,-5.6499,-5.6561,-5.657,-5.6615,-5.6654,-5.6655,-5.6601,-5.6592,-5.6683,-5.6694,-5.6707,-5.6886,-5.6726,-5.6734,-5.6738,-5.7122,-5.7129,-5.7135,0,0,0,0,0,0,-5.644,-5.6461,-5.6627,-5.6547,-5.6566,-5.657,-5.6621,-5.6619,-5.6648,-5.6661,-5.6661,-5.6631,-5.668,-5.6695,-5.681,-5.6888,-5.6737,-5.6745,-5.7116,-5.7125,-5.7132,-5.7246,0,0,0,0,0,0,-5.6434,-5.646,-5.6516,-5.6549,-5.6571,-5.6729,-5.6626,-5.6624,-5.6663,-5.6652,-5.669,-5.6691,-5.6677,-5.6799,-5.6818,-5.6896,-5.6751,-5.7109,-5.712,-5.713,-5.7236,-5.7258,-5.7277,0,0,0,0,0,-5.6426,-5.6544,-5.6519,-5.654,-5.6641,-5.6734,-5.6746,-5.6728,-5.6669,-5.6726,-5.6736,-5.669,-5.6878,-5.6811,-5.6833,-5.6914,-5.7104,-5.7117,-5.7129,-5.7226,-5.7253,-5.7276,0,0,0,0,0,0,-5.6519,-5.6548,-5.652,-5.6653,-5.6692,-5.6719,-5.679,-5.6757,-5.6812,-5.68,-5.6775,-5.6785,-5.6907,-5.6923,-5.6848,-5.7064,-5.6981,-5.6999,-5.7048,-5.7074,-5.7094,-5.7085,-5.6758,0,0,0,0,0,-5.6556,-5.6628,-5.6649,-5.6764,-5.6785,-5.6785,-5.6824,-5.6808,-5.6846,-5.6862,-5.6879,-5.6919,-5.6987,-5.7032,-5.7095,-5.724,-5.7247,-5.7307,-5.7328,-5.7344,-5.7358,-5.7437,-5.7464,-5.7177,-5.7176,-5.7176,0,0,-5.6631,-5.6656,-5.6702,-5.6784,-5.6812,-5.6887,-5.6799,-5.6882,-5.6938,-5.6875,-5.6983,-5.6999,-5.7042,-5.7173,-5.7232,-5.719,-5.7441,-5.7361,-5.7374,-5.7378,-5.7453,-5.748,-5.7504,-5.7185,-5.7184,-5.7182,0,0,-5.6805,-5.6832,-5.6931,-5.6962,-5.7006,-5.7006,-5.7031,-5.7064,-5.7072,-5.7182,-5.7136,-5.7204,-5.7322,-5.7355,-5.7387,-5.7581,-5.7541,-5.7603,-5.7708,-5.7785,-5.7807,-5.7827,-5.7896,-5.792,-5.7618,-5.7618,-5.7619,0,-5.6892,-5.7004,-5.6986,-5.7073,-5.7111,-5.706,-5.716,-5.7191,-5.7254,-5.7282,-5.7236,-5.7384,-5.741,-5.7548,-5.7596,-5.7624,-5.7651,-5.7596,-5.7806,-5.7826,-5.7844,-5.7909,-5.7934,-5.7625,-5.7625,-5.7624,-5.7623,0,-5.7109,-5.7188,-5.7263,-5.7325,-5.7373,-5.7466,-5.7463,-5.7514,-5.7495,-5.75,-5.7615,-5.7645,-5.7714,-5.7747,-5.7728,-5.7884,-5.7857,-5.781,-5.7724,-5.7879,-5.7939,-5.7964,-5.7635,-5.7633,-5.7631,-5.7629,0,0,-5.7338,-5.7394,-5.7421,-5.745,-5.7498,-5.7559,-5.7653,-5.7721,-5.7764,-5.7812,-5.7889,-5.7993,-5.7951,-5.7987,-5.7974,-5.8042,-5.8194,-5.7986,-5.7987,-5.8022,-5.8367,-5.8399,-5.8428,-5.817,-5.8175,-5.8178,-5.8362,0,-5.7512,-5.7672,-5.7661,-5.7813,-5.7886,-5.7842,-5.7923,-5.7963,-5.7972,-5.8037,-5.8048,-5.8121,-5.806,-5.8082,-5.8148,-5.8161,-5.8262,-5.8148,-5.8241,-5.8244,-5.8227,-5.846,-5.8494,-5.8666,-5.8386,-5.839,-5.8393,0,-5.7734,-5.7791,-5.795,-5.799,-5.802,-5.8093,-5.8157,-5.822,-5.8265,-5.8267,-5.8312,-5.8288,-5.8384,-5.8302,-5.8433,-5.8356,-5.8395,-5.8408,-5.8414,-5.8418,-5.8324,-5.8468,-5.872,-5.8745,-5.843,-5.8427,-5.8424,0,-5.7883,-5.7999,-5.811,-5.8136,-5.8186,-5.8239,-5.8262,-5.8303,-5.8346,-5.8403,-5.8431,-5.8499,-5.8535,-5.8589,-5.8585,-5.8525,-5.8719,-5.8636,-5.8723,-5.8723,-5.8761,-5.8758,-5.902,-5.8793,-5.8793,-5.8792,-5.8792,0,-5.8076,-5.8175,-5.8177,-5.8245,-5.8355,-5.8344,-5.8454,-5.8471,-5.8509,-5.858,-5.8548,-5.8616,-5.8608,-5.8677,-5.8676,-5.8785,-5.8803,-5.8807,-5.8805,-5.8808,-5.8807,-5.8829,-5.8816,-5.8799,-5.8798,-5.8796,-5.8795,0,-5.8258,-5.8264,-5.8381,-5.8421,-5.8433,-5.8513,-5.8547,-5.8612,-5.8621,-5.8712,-5.8733,-5.8748,-5.8828,-5.8831,-5.8922,-5.8921,-5.9055,-5.9041,-5.9039,-5.9035,-5.9121,-5.9112,-5.9403,-5.944,-5.9192,-5.9195,-5.9197,0,-5.8378,-5.8453,-5.8502,-5.8548,-5.8575,-5.8649,-5.8693,-5.8688,-5.8736,-5.8796,-5.8854,-5.8932,-5.8992,-5.9123,-5.9142,-5.9213,-5.9199,-5.9297,-5.9209,-5.921,-5.9197,-5.9191,-5.9199,-5.9312,-5.9314,-5.9317,-5.9318,0,-5.8591,-5.8591,-5.8657,-5.8725,-5.878,-5.8833,-5.8883,-5.8923,-5.8923,-5.8979,-5.9061,-5.9109,-5.9205,-5.9282,-5.9352,-5.9377,-5.9349,-5.9347,-5.9371,-5.9372,-5.9367,-5.9369,-5.9082,-5.9339,-5.9337,-5.9335,-5.9334,-5.9333,-5.8743,-5.8809,-5.8854,-5.8929,-5.8967,-5.9015,-5.9078,-5.9098,-5.9166,-5.9242,-5.9237,-5.9328,-5.9375,-5.9467,-5.9499,-5.9571,-5.9537,-5.9571,-5.9579,-5.9587,-5.9595,-5.936,-5.9584,-5.9583,-5.9583,-5.9582,-5.9582,0,-5.8952,-5.8981,-5.9051,-5.9122,-5.9182,-5.9153,-5.9208,-5.9259,-5.934,-5.9387,-5.9449,-5.9545,-5.9621,-5.9649,-5.9724,-5.9777,-5.9766,-5.9796,-5.979,-5.9797,-5.9622,-5.9593,-5.9804,-5.9804,-5.9804,-5.9804,-5.9804,-5.9804,-5.9068,-5.9176,-5.9184,-5.9312,-5.934,-5.9429,-5.9463,-5.9508,-5.9546,-5.9654,-5.9718,-5.9737,-5.9777,-5.9855,-5.9925,-5.9931,-5.9959,-5.9995,-5.9996,-5.9831,-5.9809,-5.9787,-5.976,-6.0002,-6.0003,-6.0164,-6.0166,-6.0167]},{"header":{"parameterUnit":"m.s-1","parameterCategory":1,"la1":30.2991,"la2":30.254,"lo1":-89.0895,"lo2":-89.0444,"dy":0.0017,"dx":0.0017,"nx":28,"ny":28,"refTime":"2023-10-23T21:00:00:Z","depth":0,"parameterNumber":3,"parameterNumberName":"V-component_of_WINDS"},"data":[0,0,0,0,0,0,0,0,0,0,0,0,0,0,0,0,0,0,0,0,0,0,0,0,0,0,0,0,0,0,0,0,0,0,0,0,0,0,0,0,0,0,0,0,0,0,0,0,0,0,0,0,0,0,0,0,0,0,3.1286,3.1285,0,3.1156,3.1154,3.1153,3.1017,3.1016,3.1014,3.1012,3.0872,3.087,3.0868,0,0,0,0,0,0,0,0,0,0,0,0,0,3.1416,3.1414,3.1286,3.1285,3.1283,3.1156,3.1154,3.1152,3.1018,3.1016,3.1013,3.1011,3.0873,3.0871,3.0868,0,0,0,0,0,0,0,0,0,0,0,0,0,3.133,3.1414,3.1287,3.1201,3.1192,3.1156,3.1154,3.1152,3.1018,3.1015,3.1013,3.101,3.0874,3.0871,3.0868,3.0904,0,0,3.0859,3.0857,0,0,0,0,0,0,0,0,3.1335,3.1325,3.1215,3.1207,3.1197,3.11,3.1148,3.1069,3.1019,3.1084,3.1012,3.1009,3.095,3.0941,3.0922,3.0898,3.0892,3.0858,3.0857,3.0855,3.0854,0,0,0,0,0,0,0,3.1341,3.133,3.1234,3.1214,3.1202,3.1168,3.1152,3.1133,3.1034,3.1078,3.1068,3.1055,3.0944,3.0925,3.0918,3.089,3.0858,3.0856,3.0854,3.0853,3.0891,3.0893,0,0,0,0,0,0,3.1361,3.1336,3.1238,3.123,3.1261,3.1168,3.1151,3.1134,3.1034,3.1016,3.1057,3.1049,3.0932,3.0921,3.0912,3.0948,3.0855,3.0852,3.0851,3.0888,3.0891,3.0894,0,0,0,0,0,0,3.1364,3.1353,3.1244,3.1281,3.1264,3.1168,3.1151,3.1133,3.1113,3.1018,3.0999,3.1056,3.0929,3.0916,3.0908,3.0942,3.0851,3.0848,3.0885,3.0889,3.0893,3.1022,0,0,0,0,0,0,3.1368,3.1355,3.1369,3.1282,3.1263,3.1243,3.1153,3.1132,3.1109,3.1097,3.1012,3.0995,3.0926,3.0913,3.0905,3.0936,3.0846,3.0881,3.0887,3.0892,3.1014,3.103,3.1043,0,0,0,0,0,3.1374,3.1409,3.137,3.1359,3.1278,3.1245,3.1234,3.1156,3.1112,3.1125,3.1064,3.0998,3.0941,3.0914,3.0903,3.0934,3.0878,3.0885,3.0891,3.1007,3.1027,3.1043,0,0,0,0,0,0,3.1499,3.1396,3.1352,3.136,3.1313,3.1223,3.1235,3.1178,3.1141,3.1131,3.1033,3.1015,3.1018,3.0975,3.0947,3.0965,3.09,3.0905,3.0992,3.101,3.1024,3.1033,3.0844,0,0,0,0,0,3.1529,3.1512,3.1422,3.1438,3.1417,3.1332,3.1314,3.1259,3.1205,3.1183,3.1122,3.1071,3.1041,3.1023,3.0991,3.1009,3.0988,3.1024,3.1039,3.1052,3.1056,3.1062,3.1078,3.0915,3.0915,3.0915,0,0,3.1587,3.1529,3.1524,3.1462,3.1419,3.1404,3.1315,3.1302,3.1289,3.118,3.1169,3.1123,3.106,3.1065,3.1064,3.1029,3.1097,3.106,3.1071,3.1067,3.1071,3.1086,3.11,3.0919,3.0919,3.0918,0,0,3.1686,3.1641,3.165,3.161,3.1547,3.149,3.1493,3.1412,3.1378,3.1366,3.1285,3.1268,3.1219,3.1178,3.115,3.1239,3.1176,3.1231,3.1307,3.1314,3.1327,3.1338,3.1369,3.1381,3.1236,3.1237,3.1237,0,3.1766,3.1741,3.1661,3.1654,3.1629,3.1534,3.1542,3.1506,3.1435,3.142,3.1383,3.1321,3.1272,3.1266,3.1289,3.127,3.1269,3.1239,3.1332,3.1342,3.1351,3.1379,3.1391,3.1244,3.1243,3.1242,3.1241,0,3.1843,3.1827,3.1842,3.1779,3.1756,3.1756,3.1676,3.1662,3.161,3.1557,3.1547,3.1485,3.1439,3.1434,3.1382,3.1422,3.1402,3.1351,3.1283,3.1375,3.14,3.141,3.1254,3.1251,3.1249,3.1247,0,0,3.2013,3.1909,3.1915,3.1886,3.1812,3.1797,3.1795,3.1752,3.1742,3.1698,3.1692,3.1655,3.1608,3.1577,3.1519,3.1527,3.1601,3.1473,3.147,3.1498,3.1641,3.1679,3.1693,3.156,3.1562,3.1564,3.1646,0,3.2097,3.2087,3.2017,3.2026,3.2011,3.1923,3.192,3.1874,3.1825,3.1804,3.175,3.1725,3.1665,3.1646,3.1649,3.1591,3.1628,3.1584,3.1552,3.1552,3.1568,3.1706,3.1745,3.1826,3.1655,3.1657,3.1658,0,3.2193,3.2158,3.2167,3.2096,3.2086,3.2085,3.2042,3.2023,3.197,3.1934,3.1903,3.1839,3.183,3.1771,3.1756,3.1729,3.1712,3.1682,3.1683,3.1674,3.1609,3.17,3.1849,3.1861,3.1672,3.1671,3.167,0,3.2316,3.227,3.227,3.2248,3.2164,3.2166,3.2131,3.2075,3.2055,3.2017,3.2003,3.1964,3.1942,3.1913,3.1841,3.1804,3.1835,3.1769,3.1804,3.1806,3.1812,3.1812,3.1959,3.1805,3.1805,3.1805,3.1805,0,3.2416,3.2424,3.2324,3.2323,3.2331,3.2251,3.226,3.2216,3.2168,3.2157,3.2078,3.2069,3.1976,3.1956,3.19,3.1897,3.1888,3.1858,3.1842,3.1864,3.1867,3.1849,3.1841,3.1808,3.1807,3.1807,3.1806,0,3.2551,3.2485,3.2478,3.2402,3.2383,3.2391,3.2325,3.2321,3.227,3.2257,3.2249,3.2168,3.2142,3.2068,3.2021,3.1984,3.1996,3.1968,3.2015,3.2004,3.2043,3.204,3.2182,3.2196,3.2036,3.2038,3.2039,0,3.2618,3.2624,3.2549,3.2537,3.2506,3.2488,3.2468,3.239,3.2373,3.2314,3.2317,3.2285,3.2255,3.2216,3.2152,3.2117,3.2087,3.2139,3.208,3.2102,3.2086,3.2086,3.2085,3.2151,3.2153,3.2155,3.2156,0,3.2745,3.2713,3.2688,3.2653,3.2632,3.26,3.2563,3.2558,3.2471,3.2455,3.2428,3.2406,3.236,3.2329,3.2284,3.2246,3.2187,3.2176,3.2182,3.2202,3.2229,3.2214,3.2048,3.2172,3.217,3.2169,3.2168,3.2168,3.2846,3.2848,3.2796,3.2772,3.2737,3.2706,3.2699,3.2649,3.2626,3.2584,3.254,3.2518,3.2466,3.24,3.2368,3.2349,3.2317,3.2326,3.2328,3.2331,3.2341,3.2235,3.2341,3.234,3.234,3.2339,3.2339,0,3.2968,3.2931,3.291,3.2863,3.2844,3.2794,3.2752,3.2739,3.2721,3.2679,3.2653,3.2623,3.2593,3.2529,3.2493,3.2491,3.2462,3.2484,3.2481,3.2474,3.2371,3.2369,3.2507,3.2507,3.2507,3.2507,3.2507,3.2507,3.3028,3.3027,3.299,3.2972,3.2934,3.2914,3.2895,3.2865,3.2831,3.2802,3.2778,3.2738,3.2687,3.2647,3.2618,3.26,3.2589,3.262,3.2593,3.2497,3.2481,3.2466,3.2463,3.2618,3.2619,3.2696,3.2697,3.2698]}]]